Regional Weather Roundup
Issued by NWS Wakefield, VA

Home | Current Version | Previous Version | Text Only | Print | Product List | Glossary Off
Versions: 1 2 3 4 5 6 7 8 9 10 11 12 13 14 15 16 17 18 19 20 21 22 23 24 25 26 27 28 29 30 31 32 33 34 35 36 37 38 39 40 41 42 43 44 45 46 47 48 49 50

884
ASUS41 KAKQ 121415
RWRAKQ

REGIONAL WEATHER ROUNDUP
NATIONAL WEATHER SERVICE WAKEFIELD VA
900 AM EST FRI FEB 12 2016

Note: "fair" indicates few or no clouds below 12,000 feet with no
significant weather and/or obstructions to visibility. * = Denotes
station may not report precipitation (e.g., rain,snow,etc.),
thunder or fog.

VAZ042-051-052>054-056-121500-
NORTHERN VIRGINIA

CITY           SKY/WX    TMP DP  RH WIND       PRES   REMARKS
WASH NATIONAL  PTSUNNY   23   4  44 VRB3      30.32F
DULLES         CLOUDY    19  12  73 SW12      30.17F WCI   7
FORT BELVOIR   PTSUNNY   24   3  42 CALM      30.31F
QUANTICO       PTSUNNY   25   4  40 CALM      30.34S
FREDERICKSBRG* CLOUDY    23   8  51 S5        30.32R
STAFFORD*      PTSUNNY   23   8  54 S5        30.35S
WARRENTON      CLOUDY    23  12  63 S6        30.29S
CULPEPER*      CLOUDY    21  10  62 S3        30.30F
MANASSAS*      SUNNY     19  14  79 CALM      30.31F
LEESBURG*      PTSUNNY   23  12  63 CALM      30.29S
WINCHESTER     CLOUDY    21  10  63 SW3       30.23F
FRONT ROYAL*   CLOUDY    19   9  63 CALM      30.23F
LURAY*         CLOUDY    19  10  68 S3        30.21F
$$

VAZ048-049-060>072-079>083-121500-
CENTRAL AND SOUTH CENTRAL VIRGINIA

CITY           SKY/WX    TMP DP  RH WIND       PRES   REMARKS
RICHMOND       PTSUNNY   22   8  55 SE7       30.32S
CHESTERFIELD*  CLOUDY    23  -2  33 E5        30.31F
PETERSBURG*    CLOUDY    25   5  41 E6        30.31F
HANOVER        CLOUDY    23   7  50 VRB5      30.33F
TAPPAHANNOCK*  FAIR      24   9  52 CALM      30.33F
QUINTON*       CLOUDY    23   9  54 SE5       30.33S
CHARLOTTSVILLE CLOUDY    23   6  48 S6        30.25F
GORDONSVILLE*  CLOUDY    23   8  53 SW6       30.28F
ORANGE*        CLOUDY    23   9  54 CALM      30.30F
LOUISA*        CLOUDY    25   7  46 S6        30.26F
BUMPASS*       CLOUDY    22   6  51 CALM      30.30S
FARMVILLE*     CLOUDY    25   7  45 CALM      30.27F
CREWE*         CLOUDY    23   5  44 SE5       30.28F
FORT PICKETT*  NOT AVBL
CHASE CITY*    FAIR      24   3  41 CALM      30.27S
CLARKSVILLE*   PTSUNNY   27   9  46 E6        30.27S
SOUTH HILL*    FAIR      23   6  48 CALM      30.34S
LAWRENCEVILLE* PTSUNNY   25   7  46 CALM      30.29S
EMPORIA*       PTSUNNY   25   9  50 NE5       30.32F
$$

VAZ088>098-121500-
SOUTHEAST VIRGINIA

CITY           SKY/WX    TMP DP  RH WIND       PRES   REMARKS
NORFOLK        FAIR      28  10  46 NE7       30.31S
VIRGINIA BEACH PTSUNNY   32  11  41 N3        30.31S
NORFOLK NAVAL  PTSUNNY   30  11  45 N7        30.33S
WEST POINT*    PTSUNNY   24   8  49 CALM      30.35S
SALUDA*        PTSUNNY   25   6  45 CALM      30.33S
NEWPORT NEWS   CLOUDY    25  12  58 N6        30.33S
LANGLEY AFB    CLOUDY    27  13  55 N8        30.31S
FORT EUSTIS    CLOUDY    25   7  46 NE6       30.30F
WILLIAMSBURG*  PTSUNNY   28  12  50 CALM      30.34R
HR EXEC AP*    FAIR      28  16  59 E3        30.33S
FRANKLIN*      CLOUDY    26  11  52 E7        30.32S
US460-WAKEFLD  CLOUDY    26   9  48 NE5       30.31F
$$

VAZ020-022-025-037-045-121500-
WEST CENTRAL AND SOUTHWEST VIRGINIA

CITY           SKY/WX    TMP DP  RH WIND       PRES   REMARKS
STAUNTON*      CLOUDY    22  13  68 CALM      30.22F
WAYNESBORO*    CLOUDY    19   4  51 S3        30.18F
HOT SPRINGS VA CLOUDY    18   7  63 CALM      29.96F
LYNCHBURG      CLOUDY    22   6  50 E5        30.23F
DANVILLE       CLOUDY    26   6  42 VRB6      30.25F
SOUTH BOSTON*  CLOUDY    25   4  41 E5        30.27F
MARTINSVILLE   CLOUDY    23   5  46 SE5       30.24F
ROANOKE        CLOUDY    23   6  48 SE5       30.22F
BLACKSBURG     CLOUDY    22  11  64 NE5       30.14S
DUBLIN*        CLOUDY    23  14  68 NE3       30.13R
MARION*        CLOUDY    24  12  61 E3        30.09S
HILLSVILLE*    CLOUDY    23   9  55 S7        30.06S
RICHLANDS*     CLOUDY    23  15  70 CALM      30.05S
WISE*          CLOUDY    27  12  54 SW5       30.05F
ABINGDON*      CLOUDY    29  15  55 CALM      30.09F
$$

MDZ021>025-VAZ099-100-121500-
SOUTHERN MARYLAND AND THE DELMARVA PENINSULA

CITY           SKY/WX    TMP DP  RH WIND       PRES   REMARKS
PATUXENT RIVER PTSUNNY   24  -1  33 NW5       30.32F
BAY BRIDGE APT   N/A     23   3  42 CALM      30.31F
LEONARDTOWN      N/A     23   3  42 CALM      30.33
DOVER          SUNNY     20   5  52 N6        30.29F
GEORGETOWN     MOSUNNY   22   6  50 N5        30.32S
EASTON         MOSUNNY   23   7  50 CALM      30.35S
CAMBRIDGE      SUNNY     23   5  46 CALM      30.31S
SALISBURY      SUNNY     23   5  46 CALM      30.31F
OCEAN CITY     SUNNY     22   6  50 NW7       30.32F
WALLOPS ISLAND PTSUNNY   24   5  44 N3        30.33S
ACCOMACK*      FAIR      25   3  39 CALM      30.32S
$$

NCZ012>017-030>032-121500-
NORTH CENTRAL AND EASTERN NORTH CAROLINA

CITY           SKY/WX    TMP DP  RH WIND       PRES   REMARKS
ROANOKE RAPIDS FAIR      27  10  50 NE7       30.31S
RALEIGH        CLOUDY    27   7  42 E9        30.25F
ELIZABETH CITY CLOUDY    29  17  61 NE10      30.31F WCI  20
AHOSKIE*       PTSUNNY   26  11  54 E6        30.31F
EDENTON*       CLOUDY    31  18  59 NE9       30.29F
CURRITUCK*     MOSUNNY   31  17  56 NE8       30.32S
KILL DEVIL HLS PTSUNNY   33  19  57 CALM      30.27F
MANTEO         CLOUDY    32  21  63 NE12      30.29F WCI  23
CAPE HATTERAS  CLOUDY    37  23  56 E6        30.29R
TARBORO*       CLOUDY    29  15  55 NE5       30.30S
GOLDSBORO      NOT AVBL
WASHINGTON     MOSUNNY   30  18  62 E5        30.29S
GREENVILLE     CLOUDY    30  18  59 E6        30.29F
NEW BERN       CLOUDY    32  21  64 E8        30.28F
WILMINGTON     LGT RAIN  33  26  75 NE9       30.22F
$$

VAZ048-121500-
ELSEWHERE

CITY           SKY/WX    TMP DP  RH WIND       PRES   REMARKS
HARRISBURG PA  PTSUNNY   19   7  59 SW10      30.25F WCI   7
BALTIMORE      PTSUNNY   20   3  48 CALM      30.30F
ANNAPOLIS      MOSUNNY   22   5  48 VRB3      30.31F
ANDREWS AFB    FAIR      22   3  43 VRB3      30.29F
PHILADELPHIA   MOSUNNY   20   0  41 NW5       30.30F
HENDERSON NC   MOSUNNY   25   3  38 NE5       30.27F
GREENSBORO     CLOUDY    26   5  40 E7        30.20F
ROCKY MOUNT    CLOUDY    28  10  46 NE5       30.29F
$$

VAZ100-121500-
MARINE

STATION/POSITION TIME  TEMP    WIND        PRES    WAVE   SWELL
                       AIR SEA DIR/SP/G            HT/PER HT/PER
                 (UTC) (F)     (DEG/KT/KT) (MB)    (FT/S) (FT/S)
BRANDYWINE LGT   1300   21     350/  8/ 11 1026.3F
CAPE MAY NJ      1300   22 35  340/  7/ 10 1026.1F
LEWES DE         1300   21 38  270/  9/ 11 1026.4F
15NM E FENWICK I 1350   25 43              1026.3F   2/ 4
OCEAN-CITY-INLET 1300   20 35  300/  4/  5 1026.2S
WACHAPREAGUE VA  1300   24 34   30/  6/  7 1026.9F
THOMAS POINT MD  1400   21 36  290/  3/  4 1027.3F
GOOSES REEF MD   1400   23 37  320/  6/  8 1027.7F   1
COVE POINT MD    1300   21     300/  6/  9 1027.4R
SOLOMONS ISLAND  1300   23 39  330/  5/  7   N/A
BISHOPS HEAD MD  1306   23 31  320/  4/  4 1025.9R
PINEY POINT MD   1300           70/  3/  4   N/A
POTOMAC MD       1400   25 39  350/  4/  6 1025.8F   0
CAMBRIDGE MD     1300   22 36  330/  3/  5 1026.1R
LEWISETTA VA     1300   24 37  360/  5/  8 1026.8R
RAPPAHANNOCK LGT 1300           80/  9/ 10 1026.9S
STINGRAY PT      1400   25 40  360/  6/ 10 1027.0R   1/ 3
YORK RVR RNG VA  1300   25      20/  8/ 10 1026.2R
YORKTOWN VA      1300   24 39   10/  7/  8 1026.7S
JAMESTOWN VA     1400   23 41   40/  6/ 10   N/A     0
DOMINION TERM VA 1300   26      20/  4/  6 1026.9R
KIPTOPEKE VA     1300      39   70/  5/  7   N/A
CHES BAY BRIDGE  1300   26 40   30/  9/ 13 1026.3R
CAPE HENRY VA    1300   26      30/  9/ 11   N/A
CHESAPEAKE LGHT  1300   27      30/  9/ 10 1026.9F
WILLOUBY STN VA  1300   27      20/  7/  8 1027.4R
CAPE HENRY BUOY  1328      42                N/A     3/ 5
1ST LANDING BUOY 1400      40                N/A     1/ 3
CAPE CHARLES BUO 1326      42                N/A     2/ 4   2/ 4
OFFSHORE WE BUOY 1321      45                N/A     3/ 5   3/ 5
64NM E OF VA BCH 1350   31 50  340/  6/  8 1026.2R   4/ 7   3/ 7
DUCK PIER NC     1300   30      40/  9/ 11 1025.8R
44100 DUCK FRF   1324      46                N/A     4/ 6
44056 DUCK FRF   1311      43                N/A     3/ 6
OREGON INLET NC  1300   33 41   20/ 10/ 12 1026.0F
HATTERAS NC      1300   36 45   40/  9/ 13 1024.9R
DIAMOND SHLS NC  1350   42 71   20/ 12/ 17 1024.9F   3/ 9   3/ 9
$$




USA.gov is the U.S. government's official web portal to all federal, state and local government web resources and services.